FREGAT DEB, 45879

Orbit data source: Space-Track

FREGAT DEB, 45879 is space debris in LEO originally from a launch on Mon, 18 Jul 2011 UTC launched from the Tyuratam Missile And Space Complex (TTMTR). Debris objects in space refer to the collection of defunct objects orbiting the Earth. Examples of debris include non-operational satellites, rocket bodies, and fragments generated from explosions, collisions, or faulty payload assembly.

Loading next visibility...
Identifier
45879, 2011-037CY
Orbit
LEO
Last TLE update
7 months ago
Origin
Manufacturer
Lavochkin
Mission
Spacecraft
Bus & Motor
Unknown
Mass
Unknown
Launch date (UTC)
2011-07-18 (14 years ago)
Launch vehicle
Unknown
Launch site
Tyuratam Missile And Space Complex (TTMTR)
Object type
Payload
Rocket body
Debris
Shape & HBR
Unknown
Radar Cross Section
Small (<0.1 m²)

Expand to show TLE details & history

TLE from 7 months ago
0 FREGAT DEB
1 45879U 11037CY  24324.75185606  .00123368  00000-0  40211+0 0  9998
2 45879  50.8370 167.9886 1365995 173.5692 188.4809 11.30231915166843
Epoch: 2024-11-19T18:02Z
TLE epoch observation values (Epoch: 2024-11-19T18:02:40.363Z)
Latitude
0.00002°
Longitude
-161.93736°
Altitude
3,145.703 km
Speed
6.017 km/s
True Right ascension
11h 11m 57s
True Declination
0° 00' 00"
Sunlit
Object was in daylight at epoch
Visualization orbit readout
Latitude
37.58174°
Longitude
95.77609°
Altitude
2,180.267 km
Speed
6.582 km/s
Apparent Right ascension
01h 58m 17s
Apparent Declination
22° 58' 54"
Sunlit
Object is in full shadow
Visualization observer readout
Local Sidereal Time
05:37:27
Azimuth
266.87° W
Elevation
41.12°
Doppler factor
1
Orbital elements
Apogee altitude
3,155.501 km
Perigee altitude
863.946 km
Semi-major axis
8,387.861 km
Eccentricity
0.1366
Inclination
50.837°
RAAN
167.9886°
Arg. of periapsis
173.5692°
True anomaly
Unknown
Mean anomaly
188.4809°
Eccentric anomaly
Unknown
Mean motion
2.82531 °/min
Orbital period
127.42 mins
BSTAR
0.40211
Loading maneuver chart data...
Loading SW <> Apogee altitude chart data...
Loading historical data...
Loading historical data...
Loading historical data...
Loading historical data...
Loading historical data...
Loading historical data...
Loading historical data...

FREGAT DEB Visibility forecast

Observer location: undefined°, undefined°

Span
Click to sort rows by Start time (UTC) header in descending order
Start Az.
Max El. time (UTC)
Max El. Az.
Max El.
End time (UTC)
End Az.
12 mins2025-07-05 17:42:03.069Z266.594° W2025-07-05 17:45:03.069Z235.651° WSW35.982°2025-07-05 17:54:03.069Z168.527° S
15 mins2025-07-06 06:48:03.069Z149.193° SSE2025-07-06 06:54:03.069Z114.173° SE20.688°2025-07-06 07:03:03.069Z71.896° E
25 mins2025-07-06 08:47:03.069Z212.868° SW2025-07-06 08:57:03.069Z143.161° SSE43.141°2025-07-06 09:12:03.069Z55.721° ENE
26 mins2025-07-06 10:52:03.069Z259.165° W2025-07-06 11:04:03.069Z341.689° N42.159°2025-07-06 11:18:03.069Z59.261° ENE
26 mins2025-07-06 12:59:03.069Z289.914° WNW2025-07-06 13:12:03.069Z0.239° NNE39.113°2025-07-06 13:25:03.069Z78.971° E
25 mins2025-07-06 15:07:03.069Z304.43° NW2025-07-06 15:20:03.069Z20.053° NNE44.155°2025-07-06 15:32:03.069Z116.069° SE
21 mins2025-07-06 17:14:03.069Z299.244° NW2025-07-06 17:25:03.069Z238.535° WSW36.958°2025-07-06 17:35:03.069Z164.868° S
|